Regional Weather Roundup
Issued by NWS Albany, NY

Home | Current Version | Previous Version | Text Only | Print | Product List | Glossary On
Versions: 1 2 3 4 5 6 7 8 9 10 11 12 13 14 15 16 17 18 19 20 21 22 23 24 25 26 27 28 29 30 31 32 33 34 35 36 37 38 39 40 41 42 43 44 45 46 47 48 49 50
000
ASUS41 KALY 241510
RWRALY

NEW YORK STATE HOURLY WEATHER ROUNDUP
NATIONAL WEATHER SERVICE ALBANY NY
1100 AM EDT THU MAY 24 2018

NOTE: "FAIR" INDICATES FEW OR NO CLOUDS BELOW 12,000 FEET WITH NO
SIGNIFICANT WEATHER AND/OR NO OBSTRUCTIONS TO VISIBILITY.

NYZ032-033-038>043-046>054-057>066-NYZ062>081-082-084-241600-
EAST


CITY           SKY/WX    TMP DP  RH WIND       PRES   REMARKS
ALBANY         FAIR      70  36  28 N8        30.16S
GLENS FALLS    FAIR      67  32  27 VRB7      30.15S
POUGHKEEPSIE   FAIR      72  39  30 NW5       30.13S
NEWBURGH       SUNNY     73  41  31 VRB5      30.15F
MONTGOMERY     FAIR      73  43  33 VRB3      30.13F
WHITE PLAINS   FAIR      73  33  23 N10       30.14R
ISLIP          FAIR      74  43  32 NW14      30.12R
NEW YORK CITY  FAIR      75  36  24 N13       30.13R
CENTRAL PARK   FAIR      75  38  26 CALM      30.16S
$$

NYZ005>009-017-018-044>046-055-056-241600-
CENTRAL


CITY           SKY/WX    TMP DP  RH WIND       PRES   REMARKS
FULTON         FAIR      69  42  37 CALM      30.18F
SYRACUSE       FAIR      68  45  43 CALM      30.18F
ROME           FAIR      66  43  43 VRB6      30.19F
ELMIRA         FAIR      73  47  39 SW7       30.19F
BINGHAMTON     FAIR      68  43  40 NW7       30.20S
$$

NYZ026>034-041>043-087-241600-
NORTH


CITY           SKY/WX    TMP DP  RH WIND       PRES   REMARKS
WATERTOWN      FAIR      67  38  34 VRB5      30.17F
FORT DRUM      NOT AVBL
OGDENSBURG     FAIR      67  33  27 S3        30.17F
MASSENA        FAIR      65  33  30 W5        30.18F
SARANAC LAKE   FAIR      60  23  24 MISG      30.16S
PLATTSBURGH    FAIR      61  29  29 E10       30.15F
$$

NYZ001>004-010>016-019>021-085-241600-
WEST


CITY           SKY/WX    TMP DP  RH WIND       PRES   REMARKS
NIAGARA FALLS  FAIR      72  56  57 S9        30.19F
BUFFALO        FAIR      67  52  58 SW10      30.21F
DUNKIRK        FAIR      73  52  47 SW6       30.22F
JAMESTOWN      FAIR      71  45  39 VRB5      30.26F
WELLSVILLE     FAIR      72  47  40 NW12G20   30.26S
ROCHESTER      FAIR      73  51  46 W9        30.19F
PENN YAN       FAIR      71  45  39 VRB3      30.20F
$$

             KEY
       WCI = WIND CHILL INDEX
       VSB = VISIBILITY
       HX  = HEAT INDEX
$$



USA.gov is the U.S. government's official web portal to all federal, state and local government web resources and services.